This is the latest recevied weather packets stored in our database for station/object DH1NAI-6. If no packets are shown the sender has not sent any weather packets the latest 1 day(s).
| Time | Temp. | Humidity | Pressure | Rain* | Wind** | Luminosity | Snow |
|---|---|---|---|---|---|---|---|
| 1836274454 | 17.22° C | 74% | 1018.9 hPa | 0 mm | 0.45 m/s, 217° | 0 W/m² | - |
| 1836274312 | 16.67° C | 75% | 1018.8 hPa | 0 mm | 0.45 m/s, 172° | 0 W/m² | - |
| 1778008161 | 10.56° C | 99% | 1004.6 hPa | 1.02 mm | 0 m/s | 0 W/m² | - |
| 1778007537 | 10.56° C | 99% | 1005 hPa | 1.02 mm | 0.89 m/s, 98° | 0 W/m² | - |
| 1778006929 | 10.56° C | 99% | 1005 hPa | 1.02 mm | 0 m/s | 0 W/m² | - |
| 1778006305 | 11.11° C | 99% | 1004.9 hPa | 1.02 mm | 1.79 m/s, 201° | 0 W/m² | - |
| 1778005697 | 11.11° C | 99% | 1005.3 hPa | 1.02 mm | 1.34 m/s, 188° | 0 W/m² | - |
| 1778005089 | 11.11° C | 99% | 1005.3 hPa | 1.02 mm | 0.89 m/s, 24° | 0 W/m² | - |
| 1778004484 | 11.11° C | 99% | 1005.3 hPa | 1.02 mm | 0.89 m/s, 246° | 0 W/m² | - |
| 1778003873 | 11.67° C | 98% | 1005.3 hPa | 1.02 mm | 0.45 m/s, 260° | 0 W/m² | - |
| 1778003266 | 13.33° C | 93% | 1005.1 hPa | 1.02 mm | 3.13 m/s, 113° | 0 W/m² | - |
| 1778002652 | 14.44° C | 88% | 1003.9 hPa | 0 mm | 0.89 m/s, 125° | 1 W/m² | - |
| 1778002050 | 14.44° C | 87% | 1003.9 hPa | 0 mm | 0.45 m/s, 132° | 1 W/m² | - |
| 1778001441 | 15° C | 88% | 1003.8 hPa | 0 mm | 0.45 m/s, 106° | 1 W/m² | - |
| 1778000817 | 15° C | 88% | 1003.9 hPa | 0 mm | 0.45 m/s, 78° | 1 W/m² | - |
| 1778000209 | 15.56° C | 86% | 1003.9 hPa | 0 mm | 1.34 m/s, 140° | 6 W/m² | - |
| 1777999585 | 15.56° C | 86% | 1004 hPa | 0 mm | 0.89 m/s, 109° | 21 W/m² | - |
| 1777998978 | 15.56° C | 87% | 1004.1 hPa | 0 mm | 0.45 m/s, 140° | 23 W/m² | - |
| 1777998369 | 15.56° C | 88% | 1004.1 hPa | 0 mm | 0.45 m/s, 156° | 24 W/m² | - |
| 1777997761 | 15.56° C | 93% | 1004.4 hPa | 0 mm | 0 m/s | 20 W/m² | - |
| 1777997153 | 15.56° C | 92% | 1004.6 hPa | 0 mm | 0 m/s | 19 W/m² | - |
| 1777996545 | 15.56° C | 92% | 1004.3 hPa | 1.02 mm | 0.45 m/s, 120° | 19 W/m² | - |
| 1777995932 | 15.56° C | 91% | 1004.7 hPa | 1.02 mm | 0.89 m/s, 132° | 28 W/m² | - |
| 1777995330 | 15° C | 92% | 1004.6 hPa | 1.02 mm | 1.79 m/s, 157° | 30 W/m² | - |
| 1777994721 | 15° C | 92% | 1004.6 hPa | 1.02 mm | 0.89 m/s, 125° | 22 W/m² | - |
* Rain latest hour (hover to see other rain measurements)
** Current wind speed in m/s (hover to see current wind gust speed)